Other Public Products
Issued by NWS Charleston, SC

Current Version | Previous Version | Graphics & Text | Print | Product List | Glossary On
Versions: 1 2 3 4 5 6 7 8 9 10 11 12 13 14 15 16 17 18 19 20 21 22 23 24 25 26 27 28 29 30 31 32 33 34 35 36 37 38 39 40 41 42 43 44 45 46 47 48 49 50
836 FPUS82 KCHS 180812 OPUCHS TEST...KCHS/KSAV Gateway Observations...TEST National Weather Service Charleston SC 300 AM EST SUN FEB 18 2018 NOTE: "fair" indicates few or no clouds below 12,000 feet with no significant weather and/or obstructions to visibility. SCZ050-WAZ558-NCZ071-TXZ119-213-PAZ071-DCZ001-FLZ074-172-MI076- NYZ176-178-MAZ016-IL014-TNZ027-NJZ106-GAZ044-MD014-180900- ...Gateway Observations for Charleston International... CITY SKY/WX TMP DP RH WIND PRES REMARKS Chas Airport FAIR 63 60 90 SW8 30.09F Seattle CLOUDY 40 32 73 S20G33 29.61R WCI 30 Charlotte CLOUDY 45 45 100 CALM 30.13R FOG Dallas DFW CLOUDY 50 46 86 SE3 30.16S Dallas Love CLOUDY 50 46 86 E6 30.17S Philladelphia CLOUDY 35 32 88 W12 30.03R WCI 27 Wash National CLOUDY 36 33 89 W9 30.09S WCI 29 Baltimore MOCLDY 34 34 100 SW7 30.06R WCI 28 Miami FAIR 72 69 90 NW5 30.19S Detroit CLOUDY 30 27 88 SW9 30.13R WCI 22 Newark CLOUDY 33 32 96 W9 29.98R WCI 25 Laguardia CLOUDY 34 32 92 NW8 29.96S FOG WCI 27 J F K CLOUDY 34 33 96 W8 29.97S WCI 27 Boston Logan LGT SNOW 32 32 100 NE8 29.90F FOG WCI 25 Ft. Lauderdale FAIR 70 69 97 NW5 30.18F Chicago O`Hare FAIR 23 19 85 SW7 30.21R WCI 15 Chicago Midway FAIR 25 21 85 SW7 30.23R WCI 17 Houston Bush CLOUDY 60 55 83 NE7 30.13S Houston Hobby CLOUDY 62 59 90 NE7 30.11F Nashville FAIR 39 35 86 N7 30.29S WCI 34 Atlanta MOCLDY 56 53 90 NW10 30.15S $$ GAZ044-118-TXZ119-213-NCZ071-DCZ001-MDZ014-506-PAZ021-071-NJZ106- NYZ176-178-MAZ106-OHZ011-021-055-MIZ076-KYZ091-ILZ014-INZ047- MNZ060-ONZ431-180900- ...Gateway Observations for Savannah International... CITY SKY/WX TMP DP RH WIND PRES REMARKS Savannah Arpt FAIR 65 60 84 SW14G21 30.13S Atlanta MOCLDY 56 53 90 NW10 30.15S Charlotte CLOUDY 45 45 100 CALM 30.13R FOG Dallas DFW CLOUDY 50 46 86 SE3 30.16S Houston Bush CLOUDY 60 55 83 NE7 30.13S Wash National CLOUDY 36 33 89 W9 30.09S WCI 29 Wash Dulles MOCLDY 32 32 100 S8 30.07R WCI 25 Baltimore MOCLDY 34 34 100 SW7 30.06R WCI 28 Philadelphia CLOUDY 35 32 88 W12 30.03R WCI 27 Newark CLOUDY 33 32 96 W9 29.98R WCI 25 Laguardia CLOUDY 34 32 92 NW8 29.96S FOG WCI 27 J F K CLOUDY 34 33 96 W8 29.97S WCI 27 Boston LGT SNOW 32 32 100 NE8 29.90F FOG WCI 25 Pittsburg FLURRIES 33 32 96 W12 30.09R WCI 24 Akron FLURRIES 34 29 82 NW15 30.11R WCI 24 Cleveland MOCLDY 32 30 92 W8 30.16R WCI 25 Cincinnati FAIR 34 31 88 NW9 30.23R WCI 27 Columbus CLOUDY 34 29 83 NW12 30.21R WCI 25 Detroit CLOUDY 30 27 88 SW9 30.13R WCI 22 Chicago O`Hare FAIR 23 19 85 SW7 30.21R WCI 15 Minneapolis CLOUDY 21 9 59 SW3 30.10R Indianapolis FAIR 28 25 88 NW14 30.24S WCI 17 Toronto Canada MOCLDY 27 21 80 W10 30.01R WCI 17 $$

USA.gov is the U.S. government's official web portal to all federal, state and local government web resources and services.